GFSNGP_prec_pwat_045.txt.gz
Precipitable_Water
0.30 0.33 0.32 0.31 0.29 0.29 0.28 0.26 0.21 0.21 0.18 0.16 0.20 0.23 0.27 0.31 0.35 0.40 0.48 0.50 0.54 0.56 0.60 0.64 0.64 0.66 0.66 0.66 0.66 0.64 0.56 0.49 0.45 0.46 0.45 0.44 0.45 0.44 0.42 0.41 0.39 0.39 0.37 0.36
0.28 0.31 0.27 0.24 0.27 0.27 0.26 0.25 0.22 0.21 0.20 0.25 0.28 0.29 0.28 0.27 0.34 0.37 0.44 0.48 0.52 0.56 0.60 0.61 0.60 0.61 0.64 0.62 0.59 0.54 0.52 0.49 0.45 0.42 0.44 0.46 0.44 0.42 0.41 0.39 0.38 0.38 0.36 0.34
0.24 0.28 0.24 0.18 0.20 0.22 0.24 0.25 0.25 0.21 0.24 0.31 0.30 0.28 0.28 0.31 0.36 0.36 0.41 0.47 0.51 0.55 0.58 0.60 0.59 0.61 0.56 0.56 0.53 0.56 0.54 0.47 0.41 0.45 0.43 0.41 0.41 0.40 0.37 0.36 0.36 0.35 0.33 0.32
0.26 0.23 0.14 0.20 0.24 0.22 0.21 0.22 0.25 0.27 0.26 0.27 0.28 0.32 0.35 0.37 0.39 0.41 0.43 0.47 0.53 0.56 0.57 0.56 0.57 0.54 0.53 0.53 0.58 0.54 0.47 0.40 0.41 0.43 0.43 0.41 0.37 0.35 0.35 0.35 0.35 0.32 0.32 0.32
0.22 0.19 0.21 0.21 0.21 0.20 0.19 0.18 0.24 0.25 0.24 0.27 0.31 0.32 0.31 0.42 0.39 0.41 0.46 0.52 0.56 0.58 0.55 0.53 0.51 0.51 0.55 0.56 0.52 0.47 0.45 0.40 0.43 0.43 0.39 0.36 0.33 0.33 0.35 0.33 0.33 0.31 0.31 0.32
0.22 0.18 0.15 0.25 0.27 0.30 0.27 0.18 0.28 0.27 0.28 0.27 0.29 0.24 0.32 0.46 0.42 0.44 0.51 0.55 0.56 0.53 0.51 0.49 0.51 0.53 0.54 0.54 0.49 0.44 0.40 0.45 0.41 0.39 0.35 0.33 0.33 0.33 0.33 0.33 0.31 0.32 0.32 0.32
0.28 0.25 0.27 0.32 0.32 0.32 0.18 0.24 0.32 0.29 0.31 0.33 0.29 0.40 0.45 0.46 0.47 0.52 0.55 0.55 0.54 0.51 0.51 0.50 0.54 0.60 0.58 0.49 0.41 0.42 0.47 0.41 0.38 0.35 0.33 0.33 0.33 0.33 0.33 0.32 0.30 0.30 0.31 0.31
0.31 0.24 0.18 0.32 0.29 0.22 0.36 0.33 0.37 0.35 0.39 0.40 0.43 0.47 0.46 0.51 0.54 0.54 0.54 0.52 0.52 0.50 0.50 0.58 0.60 0.55 0.45 0.39 0.47 0.45 0.40 0.36 0.33 0.33 0.33 0.33 0.33 0.32 0.32 0.29 0.27 0.29 0.30 0.30
0.28 0.29 0.38 0.32 0.32 0.40 0.38 0.35 0.38 0.40 0.44 0.46 0.45 0.48 0.50 0.52 0.53 0.52 0.49 0.49 0.51 0.55 0.59 0.61 0.59 0.50 0.48 0.46 0.43 0.39 0.35 0.33 0.32 0.32 0.33 0.32 0.30 0.29 0.28 0.27 0.27 0.28 0.28 0.27
0.28 0.31 0.33 0.36 0.40 0.42 0.45 0.44 0.46 0.47 0.48 0.50 0.49 0.54 0.55 0.54 0.49 0.47 0.49 0.55 0.63 0.62 0.58 0.52 0.48 0.51 0.46 0.44 0.40 0.36 0.32 0.31 0.31 0.30 0.30 0.30 0.30 0.29 0.27 0.26 0.27 0.27 0.27 0.26
0.31 0.33 0.36 0.42 0.46 0.48 0.48 0.52 0.54 0.57 0.54 0.55 0.56 0.57 0.53 0.49 0.49 0.56 0.61 0.63 0.59 0.53 0.51 0.52 0.47 0.44 0.41 0.38 0.35 0.31 0.29 0.29 0.29 0.29 0.30 0.29 0.29 0.28 0.28 0.29 0.29 0.28 0.28 0.28
0.31 0.42 0.40 0.44 0.50 0.53 0.52 0.52 0.55 0.53 0.51 0.54 0.56 0.52 0.54 0.58 0.61 0.62 0.59 0.58 0.58 0.53 0.49 0.44 0.41 0.37 0.34 0.32 0.30 0.28 0.26 0.27 0.28 0.28 0.28 0.28 0.28 0.27 0.31 0.31 0.31 0.31 0.30 0.29
0.42 0.50 0.51 0.52 0.51 0.53 0.51 0.53 0.55 0.56 0.58 0.58 0.61 0.61 0.61 0.60 0.59 0.59 0.58 0.54 0.49 0.44 0.40 0.36 0.33 0.30 0.29 0.28 0.28 0.27 0.26 0.26 0.27 0.28 0.28 0.27 0.27 0.28 0.26 0.31 0.33 0.32 0.32 0.31
0.51 0.52 0.49 0.52 0.50 0.57 0.56 0.57 0.59 0.60 0.60 0.60 0.60 0.60 0.60 0.57 0.54 0.50 0.47 0.42 0.37 0.34 0.31 0.29 0.27 0.26 0.28 0.29 0.28 0.28 0.28 0.27 0.27 0.28 0.29 0.29 0.30 0.30 0.30 0.29 0.28 0.30 0.34 0.34
0.51 0.54 0.54 0.57 0.56 0.55 0.58 0.58 0.57 0.57 0.58 0.57 0.57 0.53 0.49 0.45 0.42 0.39 0.37 0.34 0.30 0.27 0.26 0.26 0.25 0.25 0.27 0.28 0.28 0.27 0.28 0.28 0.29 0.30 0.31 0.31 0.31 0.31 0.31 0.30 0.28 0.29 0.31 0.32
0.53 0.54 0.54 0.53 0.53 0.56 0.57 0.57 0.54 0.53 0.51 0.50 0.49 0.45 0.41 0.37 0.33 0.30 0.28 0.28 0.24 0.21 0.23 0.23 0.24 0.25 0.27 0.28 0.27 0.27 0.28 0.29 0.31 0.32 0.32 0.32 0.33 0.31 0.31 0.30 0.29 0.29 0.30 0.30
0.48 0.48 0.52 0.53 0.54 0.54 0.53 0.51 0.51 0.50 0.45 0.41 0.37 0.34 0.30 0.27 0.25 0.24 0.23 0.24 0.24 0.24 0.24 0.24 0.23 0.26 0.26 0.26 0.26 0.27 0.28 0.30 0.32 0.33 0.32 0.33 0.31 0.29 0.30 0.30 0.29 0.29 0.30 0.34
0.59 0.58 0.57 0.54 0.51 0.50 0.48 0.44 0.41 0.38 0.34 0.31 0.28 0.26 0.24 0.21 0.20 0.22 0.24 0.25 0.24 0.23 0.24 0.24 0.29 0.30 0.28 0.27 0.27 0.26 0.27 0.28 0.31 0.31 0.32 0.32 0.31 0.31 0.29 0.28 0.28 0.29 0.30 0.33
0.57 0.53 0.53 0.51 0.48 0.43 0.40 0.36 0.32 0.31 0.28 0.26 0.24 0.22 0.24 0.24 0.24 0.23 0.23 0.21 0.18 0.17 0.21 0.26 0.26 0.26 0.25 0.25 0.26 0.28 0.28 0.30 0.29 0.30 0.31 0.30 0.29 0.28 0.28 0.30 0.30 0.30 0.31 0.32
0.51 0.48 0.45 0.41 0.38 0.36 0.32 0.30 0.31 0.28 0.28 0.26 0.25 0.23 0.21 0.19 0.17 0.16 0.17 0.16 0.19 0.21 0.22 0.23 0.23 0.23 0.24 0.24 0.26 0.29 0.31 0.29 0.29 0.29 0.29 0.29 0.28 0.28 0.28 0.30 0.30 0.30 0.30 0.31
0.43 0.40 0.37 0.34 0.33 0.32 0.31 0.29 0.27 0.26 0.26 0.23 0.19 0.16 0.15 0.16 0.18 0.18 0.17 0.16 0.18 0.21 0.21 0.20 0.21 0.23 0.25 0.26 0.26 0.27 0.30 0.29 0.28 0.29 0.29 0.28 0.28 0.28 0.28 0.29 0.29 0.29 0.29 0.29
0.39 0.36 0.35 0.34 0.33 0.30 0.29 0.27 0.25 0.21 0.18 0.17 0.18 0.18 0.16 0.16 0.17 0.17 0.17 0.16 0.17 0.16 0.17 0.16 0.16 0.19 0.23 0.26 0.26 0.27 0.28 0.29 0.29 0.28 0.27 0.26 0.26 0.26 0.27 0.27 0.27 0.28 0.29 0.29
0.39 0.38 0.36 0.33 0.30 0.25 0.23 0.21 0.20 0.20 0.19 0.18 0.18 0.17 0.17 0.17 0.16 0.14 0.13 0.17 0.16 0.16 0.15 0.15 0.19 0.20 0.21 0.24 0.24 0.26 0.27 0.27 0.26 0.26 0.25 0.25 0.24 0.23 0.24 0.24 0.24 0.24 0.24 0.25
0.39 0.37 0.31 0.28 0.24 0.21 0.19 0.19 0.19 0.20 0.20 0.18 0.19 0.18 0.16 0.14 0.15 0.16 0.16 0.15 0.16 0.16 0.16 0.20 0.17 0.16 0.17 0.19 0.21 0.22 0.23 0.24 0.23 0.23 0.23 0.23 0.23 0.22 0.22 0.22 0.22 0.22 0.22 0.22
0.32 0.30 0.27 0.24 0.22 0.21 0.20 0.19 0.19 0.19 0.18 0.18 0.18 0.17 0.16 0.16 0.14 0.14 0.15 0.15 0.14 0.14 0.14 0.16 0.15 0.15 0.17 0.17 0.18 0.18 0.19 0.20 0.20 0.21 0.21 0.21 0.21 0.20 0.21 0.21 0.21 0.20 0.20 0.20
0.30 0.28 0.25 0.23 0.22 0.21 0.21 0.19 0.19 0.19 0.17 0.16 0.15 0.15 0.15 0.15 0.14 0.14 0.13 0.14 0.13 0.14 0.14 0.14 0.14 0.14 0.15 0.15 0.16 0.16 0.17 0.17 0.18 0.18 0.18 0.18 0.19 0.19 0.19 0.19 0.19 0.19 0.19 0.19
0.27 0.25 0.23 0.23 0.22 0.21 0.20 0.19 0.18 0.16 0.16 0.15 0.12 0.14 0.14 0.14 0.13 0.13 0.13 0.13 0.13 0.13 0.13 0.14 0.14 0.14 0.14 0.14 0.15 0.15 0.15 0.15 0.16 0.16 0.16 0.17 0.17 0.17 0.17 0.17 0.16 0.16 0.16 0.16

GFSNGP_prec_pwat_048.txt.gz
Precipitable_Water
0.24 0.29 0.33 0.33 0.35 0.33 0.30 0.31 0.28 0.27 0.25 0.27 0.25 0.30 0.31 0.34 0.35 0.36 0.38 0.54 0.60 0.68 0.70 0.71 0.70 0.69 0.71 0.69 0.69 0.73 0.67 0.62 0.56 0.53 0.53 0.57 0.48 0.49 0.54 0.48 0.45 0.41 0.39 0.40
0.29 0.35 0.33 0.29 0.28 0.29 0.27 0.28 0.28 0.28 0.26 0.32 0.34 0.36 0.33 0.33 0.32 0.31 0.38 0.47 0.58 0.58 0.63 0.63 0.65 0.65 0.64 0.64 0.67 0.67 0.57 0.54 0.55 0.57 0.53 0.48 0.48 0.52 0.47 0.45 0.41 0.39 0.38 0.39
0.23 0.30 0.27 0.20 0.21 0.22 0.22 0.26 0.27 0.23 0.28 0.33 0.32 0.32 0.33 0.33 0.33 0.36 0.37 0.41 0.54 0.58 0.61 0.64 0.64 0.64 0.60 0.62 0.61 0.53 0.54 0.59 0.56 0.51 0.47 0.43 0.50 0.46 0.41 0.40 0.39 0.39 0.39 0.38
0.27 0.27 0.17 0.23 0.27 0.25 0.23 0.24 0.24 0.26 0.29 0.30 0.32 0.35 0.35 0.34 0.36 0.39 0.45 0.44 0.49 0.56 0.61 0.64 0.64 0.62 0.60 0.57 0.53 0.54 0.56 0.53 0.48 0.47 0.46 0.50 0.45 0.40 0.38 0.39 0.39 0.38 0.36 0.34
0.24 0.22 0.24 0.25 0.26 0.23 0.22 0.21 0.28 0.26 0.27 0.29 0.34 0.27 0.36 0.44 0.44 0.40 0.42 0.47 0.53 0.60 0.61 0.60 0.58 0.56 0.53 0.54 0.54 0.53 0.48 0.50 0.47 0.48 0.48 0.43 0.39 0.38 0.38 0.38 0.37 0.35 0.34 0.31
0.24 0.20 0.16 0.28 0.31 0.31 0.27 0.19 0.31 0.30 0.31 0.31 0.31 0.24 0.37 0.48 0.48 0.45 0.47 0.52 0.55 0.57 0.56 0.55 0.52 0.54 0.52 0.51 0.52 0.52 0.50 0.49 0.52 0.47 0.43 0.40 0.39 0.38 0.37 0.36 0.35 0.34 0.32 0.32
0.28 0.24 0.28 0.37 0.37 0.35 0.20 0.27 0.38 0.37 0.32 0.34 0.32 0.42 0.47 0.49 0.49 0.51 0.56 0.57 0.56 0.55 0.53 0.52 0.54 0.55 0.55 0.57 0.53 0.49 0.51 0.52 0.47 0.44 0.40 0.38 0.36 0.35 0.34 0.33 0.33 0.32 0.31 0.30
0.33 0.29 0.21 0.37 0.32 0.24 0.39 0.40 0.37 0.36 0.39 0.40 0.43 0.46 0.50 0.48 0.54 0.56 0.53 0.52 0.53 0.50 0.51 0.55 0.55 0.56 0.54 0.51 0.52 0.55 0.52 0.46 0.40 0.36 0.34 0.33 0.32 0.32 0.32 0.31 0.29 0.28 0.27 0.28
0.31 0.32 0.39 0.36 0.36 0.42 0.41 0.38 0.41 0.42 0.43 0.43 0.44 0.46 0.53 0.54 0.55 0.52 0.48 0.48 0.53 0.54 0.55 0.59 0.60 0.57 0.52 0.54 0.54 0.49 0.43 0.35 0.33 0.32 0.31 0.31 0.30 0.29 0.28 0.28 0.27 0.25 0.25 0.26
0.33 0.32 0.37 0.40 0.46 0.49 0.48 0.45 0.47 0.50 0.49 0.50 0.50 0.54 0.56 0.56 0.49 0.47 0.52 0.55 0.58 0.58 0.58 0.56 0.56 0.59 0.57 0.49 0.46 0.38 0.33 0.30 0.28 0.27 0.27 0.28 0.29 0.29 0.27 0.27 0.26 0.26 0.26 0.26
0.32 0.35 0.41 0.47 0.52 0.51 0.51 0.52 0.51 0.54 0.51 0.51 0.55 0.55 0.52 0.50 0.52 0.54 0.56 0.58 0.59 0.59 0.59 0.56 0.53 0.47 0.43 0.39 0.35 0.29 0.27 0.26 0.26 0.26 0.27 0.27 0.28 0.28 0.28 0.29 0.29 0.27 0.28 0.29
0.32 0.45 0.46 0.49 0.52 0.52 0.46 0.46 0.49 0.48 0.49 0.52 0.52 0.53 0.55 0.55 0.57 0.57 0.59 0.61 0.60 0.55 0.50 0.44 0.39 0.36 0.32 0.31 0.28 0.26 0.24 0.24 0.25 0.26 0.26 0.26 0.26 0.26 0.30 0.30 0.31 0.32 0.33 0.32
0.48 0.54 0.51 0.49 0.49 0.51 0.49 0.51 0.54 0.54 0.54 0.53 0.55 0.56 0.57 0.57 0.59 0.60 0.58 0.52 0.46 0.42 0.39 0.35 0.31 0.27 0.27 0.27 0.26 0.26 0.25 0.25 0.26 0.26 0.26 0.27 0.28 0.28 0.26 0.30 0.34 0.33 0.33 0.34
0.50 0.51 0.44 0.48 0.45 0.53 0.55 0.55 0.55 0.54 0.54 0.55 0.57 0.57 0.55 0.51 0.49 0.47 0.45 0.41 0.37 0.31 0.27 0.26 0.26 0.26 0.28 0.28 0.27 0.26 0.26 0.27 0.27 0.27 0.28 0.29 0.30 0.30 0.30 0.30 0.28 0.28 0.32 0.32
0.47 0.52 0.53 0.55 0.55 0.54 0.55 0.53 0.51 0.53 0.55 0.53 0.53 0.50 0.47 0.43 0.40 0.37 0.34 0.31 0.28 0.24 0.24 0.24 0.23 0.22 0.24 0.25 0.25 0.25 0.26 0.27 0.28 0.29 0.31 0.32 0.33 0.32 0.30 0.30 0.30 0.30 0.30 0.32
0.51 0.52 0.52 0.51 0.51 0.52 0.53 0.54 0.52 0.50 0.50 0.49 0.47 0.41 0.39 0.35 0.30 0.27 0.27 0.27 0.22 0.20 0.22 0.23 0.22 0.23 0.26 0.28 0.27 0.27 0.26 0.27 0.28 0.29 0.31 0.33 0.34 0.32 0.29 0.30 0.29 0.29 0.29 0.29
0.47 0.45 0.48 0.48 0.50 0.52 0.52 0.53 0.50 0.47 0.45 0.40 0.35 0.32 0.29 0.25 0.24 0.23 0.24 0.26 0.25 0.22 0.20 0.19 0.22 0.29 0.29 0.29 0.29 0.28 0.26 0.26 0.26 0.26 0.28 0.31 0.30 0.31 0.30 0.31 0.30 0.29 0.28 0.30
0.54 0.54 0.55 0.55 0.53 0.51 0.48 0.47 0.44 0.41 0.35 0.33 0.30 0.27 0.24 0.23 0.23 0.23 0.21 0.19 0.16 0.17 0.19 0.24 0.24 0.23 0.22 0.20 0.21 0.23 0.23 0.23 0.25 0.26 0.28 0.28 0.29 0.30 0.30 0.28 0.27 0.27 0.28 0.31
0.56 0.54 0.53 0.52 0.50 0.48 0.45 0.41 0.37 0.35 0.32 0.29 0.26 0.24 0.23 0.21 0.18 0.18 0.19 0.16 0.16 0.18 0.21 0.22 0.22 0.21 0.19 0.22 0.25 0.26 0.25 0.24 0.24 0.25 0.31 0.30 0.27 0.30 0.30 0.29 0.28 0.28 0.29 0.30
0.52 0.51 0.50 0.49 0.48 0.42 0.37 0.38 0.37 0.32 0.29 0.25 0.22 0.19 0.17 0.16 0.17 0.17 0.17 0.17 0.18 0.21 0.21 0.20 0.17 0.16 0.16 0.18 0.19 0.19 0.22 0.24 0.23 0.23 0.27 0.29 0.28 0.29 0.29 0.29 0.29 0.29 0.29 0.31
0.49 0.48 0.44 0.41 0.38 0.37 0.35 0.33 0.29 0.26 0.24 0.20 0.17 0.17 0.16 0.16 0.18 0.17 0.17 0.16 0.20 0.20 0.18 0.16 0.16 0.19 0.19 0.17 0.17 0.19 0.22 0.24 0.23 0.24 0.26 0.29 0.28 0.27 0.27 0.26 0.26 0.27 0.27 0.28
0.46 0.42 0.40 0.39 0.36 0.33 0.31 0.29 0.25 0.21 0.19 0.18 0.18 0.18 0.17 0.17 0.18 0.18 0.18 0.18 0.18 0.17 0.16 0.15 0.18 0.15 0.15 0.15 0.17 0.18 0.19 0.20 0.21 0.24 0.25 0.25 0.25 0.24 0.24 0.24 0.23 0.23 0.24 0.25
0.42 0.41 0.39 0.37 0.34 0.30 0.26 0.22 0.22 0.21 0.19 0.18 0.19 0.19 0.18 0.18 0.18 0.16 0.15 0.17 0.17 0.15 0.14 0.15 0.14 0.12 0.13 0.15 0.16 0.16 0.17 0.18 0.17 0.18 0.20 0.21 0.22 0.22 0.22 0.22 0.22 0.21 0.21 0.21
0.42 0.41 0.37 0.34 0.29 0.24 0.21 0.21 0.20 0.21 0.21 0.20 0.21 0.20 0.19 0.17 0.17 0.18 0.17 0.15 0.14 0.13 0.13 0.14 0.13 0.12 0.13 0.14 0.14 0.14 0.15 0.16 0.15 0.16 0.17 0.18 0.19 0.19 0.20 0.20 0.20 0.20 0.20 0.20
0.38 0.35 0.32 0.28 0.25 0.23 0.22 0.21 0.21 0.22 0.21 0.21 0.21 0.20 0.18 0.18 0.15 0.15 0.14 0.14 0.13 0.13 0.13 0.13 0.13 0.12 0.12 0.12 0.13 0.13 0.14 0.14 0.14 0.15 0.15 0.15 0.16 0.17 0.17 0.17 0.18 0.18 0.18 0.18
0.33 0.30 0.28 0.27 0.25 0.23 0.23 0.22 0.21 0.22 0.20 0.20 0.19 0.17 0.17 0.17 0.15 0.14 0.14 0.13 0.13 0.13 0.12 0.12 0.13 0.13 0.12 0.12 0.12 0.12 0.12 0.13 0.13 0.14 0.14 0.14 0.14 0.15 0.15 0.16 0.16 0.17 0.17 0.17
0.31 0.30 0.28 0.27 0.25 0.24 0.23 0.22 0.21 0.19 0.20 0.19 0.15 0.14 0.15 0.15 0.14 0.13 0.13 0.12 0.12 0.12 0.12 0.12 0.12 0.12 0.12 0.12 0.12 0.12 0.12 0.12 0.12 0.12 0.13 0.13 0.13 0.14 0.14 0.15 0.15 0.16 0.16 0.16

GFSNGP_prec_pwat_054.txt.gz
Precipitable_Water
0.31 0.29 0.31 0.30 0.28 0.31 0.31 0.32 0.27 0.28 0.30 0.33 0.37 0.36 0.38 0.41 0.41 0.46 0.57 0.64 0.67 0.68 0.73 0.79 0.82 0.88 0.90 0.93 0.96 0.94 0.89 0.76 0.75 0.69 0.64 0.61 0.68 0.63 0.64 0.61 0.57 0.56 0.51 0.49
0.28 0.33 0.30 0.25 0.26 0.29 0.29 0.33 0.33 0.33 0.30 0.37 0.37 0.37 0.37 0.38 0.41 0.42 0.46 0.50 0.62 0.69 0.70 0.74 0.78 0.81 0.86 0.90 0.89 0.85 0.71 0.65 0.63 0.65 0.65 0.69 0.63 0.62 0.59 0.57 0.56 0.51 0.47 0.44
0.19 0.24 0.23 0.18 0.20 0.22 0.26 0.29 0.29 0.24 0.33 0.39 0.37 0.37 0.39 0.41 0.42 0.43 0.46 0.49 0.50 0.55 0.64 0.71 0.76 0.81 0.81 0.76 0.68 0.64 0.64 0.64 0.64 0.64 0.62 0.62 0.63 0.61 0.58 0.53 0.48 0.45 0.42 0.37
0.17 0.20 0.11 0.19 0.26 0.25 0.23 0.25 0.28 0.29 0.30 0.33 0.35 0.40 0.43 0.45 0.44 0.44 0.46 0.47 0.52 0.56 0.60 0.64 0.65 0.64 0.62 0.62 0.63 0.64 0.63 0.61 0.61 0.60 0.61 0.64 0.67 0.57 0.51 0.46 0.41 0.37 0.33 0.32
0.22 0.21 0.24 0.27 0.29 0.26 0.25 0.27 0.34 0.32 0.35 0.37 0.40 0.41 0.41 0.46 0.46 0.45 0.46 0.47 0.48 0.52 0.54 0.56 0.58 0.60 0.60 0.60 0.60 0.59 0.59 0.59 0.61 0.66 0.69 0.64 0.54 0.47 0.42 0.37 0.32 0.30 0.29 0.29
0.31 0.28 0.25 0.29 0.31 0.34 0.33 0.23 0.36 0.36 0.35 0.35 0.36 0.25 0.35 0.47 0.47 0.45 0.47 0.48 0.47 0.48 0.50 0.53 0.55 0.57 0.57 0.57 0.58 0.57 0.58 0.63 0.66 0.68 0.56 0.48 0.44 0.38 0.33 0.30 0.28 0.27 0.26 0.27
0.26 0.24 0.27 0.34 0.36 0.36 0.21 0.22 0.38 0.40 0.40 0.38 0.32 0.37 0.40 0.44 0.43 0.45 0.45 0.44 0.48 0.50 0.52 0.54 0.56 0.58 0.56 0.56 0.57 0.64 0.68 0.69 0.59 0.55 0.49 0.42 0.34 0.29 0.28 0.25 0.24 0.24 0.25 0.27
0.30 0.25 0.22 0.41 0.34 0.27 0.35 0.46 0.46 0.44 0.43 0.39 0.42 0.41 0.41 0.42 0.41 0.43 0.46 0.48 0.51 0.52 0.53 0.55 0.56 0.57 0.58 0.59 0.63 0.66 0.60 0.55 0.50 0.43 0.35 0.28 0.24 0.23 0.23 0.23 0.23 0.23 0.23 0.24
0.28 0.27 0.40 0.43 0.40 0.46 0.47 0.42 0.43 0.43 0.46 0.43 0.41 0.41 0.42 0.43 0.45 0.48 0.50 0.51 0.52 0.52 0.54 0.57 0.59 0.59 0.56 0.60 0.58 0.53 0.46 0.40 0.32 0.26 0.22 0.21 0.21 0.21 0.21 0.23 0.22 0.21 0.23 0.24
0.30 0.39 0.40 0.42 0.47 0.48 0.48 0.46 0.49 0.47 0.47 0.46 0.40 0.42 0.44 0.46 0.48 0.49 0.51 0.51 0.54 0.56 0.55 0.54 0.55 0.55 0.52 0.48 0.45 0.38 0.30 0.25 0.22 0.21 0.21 0.22 0.23 0.23 0.23 0.23 0.22 0.23 0.24 0.24
0.38 0.44 0.46 0.47 0.48 0.48 0.48 0.50 0.49 0.50 0.47 0.42 0.43 0.44 0.47 0.48 0.49 0.51 0.54 0.57 0.56 0.54 0.52 0.49 0.48 0.44 0.41 0.36 0.32 0.26 0.23 0.23 0.23 0.23 0.23 0.23 0.24 0.24 0.25 0.26 0.26 0.25 0.25 0.27
0.30 0.45 0.43 0.44 0.49 0.52 0.50 0.50 0.51 0.48 0.45 0.46 0.48 0.48 0.49 0.49 0.52 0.54 0.53 0.54 0.51 0.48 0.44 0.41 0.38 0.35 0.32 0.29 0.28 0.25 0.23 0.23 0.23 0.23 0.24 0.24 0.24 0.24 0.29 0.30 0.30 0.32 0.32 0.32
0.41 0.50 0.48 0.50 0.53 0.56 0.53 0.53 0.52 0.49 0.48 0.47 0.50 0.51 0.52 0.52 0.53 0.53 0.52 0.47 0.43 0.40 0.38 0.35 0.31 0.28 0.29 0.29 0.28 0.26 0.24 0.24 0.24 0.24 0.24 0.24 0.25 0.25 0.23 0.24 0.29 0.29 0.33 0.36
0.54 0.52 0.48 0.51 0.49 0.57 0.56 0.54 0.53 0.51 0.52 0.52 0.52 0.52 0.51 0.52 0.50 0.47 0.44 0.42 0.39 0.33 0.29 0.27 0.25 0.24 0.25 0.24 0.23 0.21 0.20 0.19 0.19 0.19 0.20 0.19 0.20 0.20 0.21 0.20 0.19 0.21 0.28 0.32
0.56 0.57 0.55 0.56 0.57 0.56 0.54 0.52 0.50 0.50 0.51 0.49 0.50 0.49 0.48 0.46 0.43 0.41 0.38 0.35 0.30 0.27 0.25 0.24 0.22 0.21 0.22 0.22 0.19 0.17 0.16 0.17 0.18 0.18 0.19 0.20 0.21 0.20 0.20 0.20 0.20 0.22 0.25 0.29
0.60 0.59 0.58 0.55 0.53 0.52 0.51 0.51 0.49 0.47 0.48 0.48 0.47 0.46 0.44 0.42 0.38 0.33 0.30 0.28 0.23 0.22 0.23 0.22 0.20 0.20 0.20 0.19 0.18 0.17 0.17 0.16 0.15 0.15 0.15 0.15 0.16 0.17 0.18 0.18 0.18 0.19 0.23 0.29
0.56 0.53 0.55 0.52 0.51 0.51 0.51 0.51 0.50 0.49 0.49 0.46 0.42 0.39 0.35 0.32 0.30 0.27 0.25 0.25 0.24 0.22 0.22 0.20 0.19 0.20 0.19 0.18 0.15 0.14 0.14 0.14 0.15 0.15 0.16 0.17 0.19 0.19 0.19 0.19 0.19 0.24 0.28 0.31
0.67 0.63 0.59 0.55 0.53 0.53 0.52 0.53 0.51 0.48 0.44 0.41 0.37 0.33 0.31 0.28 0.25 0.24 0.23 0.22 0.21 0.20 0.20 0.20 0.20 0.17 0.15 0.14 0.14 0.14 0.14 0.14 0.13 0.14 0.15 0.17 0.17 0.17 0.18 0.19 0.21 0.23 0.27 0.29
0.63 0.59 0.57 0.56 0.55 0.53 0.52 0.49 0.47 0.44 0.40 0.37 0.32 0.30 0.28 0.26 0.24 0.22 0.21 0.20 0.19 0.18 0.18 0.20 0.17 0.14 0.13 0.13 0.14 0.13 0.12 0.12 0.12 0.12 0.13 0.13 0.14 0.15 0.15 0.18 0.19 0.21 0.22 0.23
0.57 0.57 0.56 0.55 0.54 0.51 0.49 0.46 0.43 0.38 0.35 0.32 0.29 0.27 0.25 0.22 0.21 0.20 0.21 0.19 0.19 0.18 0.19 0.17 0.15 0.13 0.12 0.12 0.12 0.12 0.11 0.11 0.10 0.10 0.11 0.11 0.12 0.13 0.14 0.14 0.16 0.18 0.19 0.20
0.56 0.55 0.53 0.53 0.52 0.49 0.44 0.40 0.37 0.34 0.31 0.29 0.26 0.23 0.21 0.21 0.21 0.20 0.19 0.18 0.18 0.17 0.17 0.16 0.13 0.12 0.11 0.11 0.11 0.10 0.10 0.10 0.09 0.10 0.10 0.10 0.11 0.11 0.12 0.13 0.13 0.14 0.16 0.17
0.53 0.53 0.52 0.50 0.46 0.43 0.42 0.38 0.35 0.32 0.29 0.25 0.23 0.21 0.21 0.20 0.21 0.20 0.20 0.18 0.18 0.16 0.15 0.13 0.12 0.12 0.11 0.10 0.10 0.09 0.09 0.09 0.09 0.09 0.09 0.10 0.10 0.10 0.11 0.11 0.12 0.13 0.13 0.15
0.51 0.49 0.46 0.42 0.40 0.38 0.37 0.34 0.32 0.28 0.25 0.24 0.22 0.22 0.21 0.21 0.21 0.18 0.16 0.18 0.17 0.15 0.14 0.13 0.12 0.12 0.11 0.10 0.10 0.09 0.09 0.09 0.09 0.09 0.10 0.10 0.10 0.10 0.10 0.10 0.11 0.12 0.13 0.13
0.45 0.43 0.41 0.41 0.40 0.37 0.32 0.30 0.28 0.26 0.25 0.24 0.23 0.23 0.22 0.20 0.20 0.21 0.19 0.17 0.15 0.13 0.13 0.12 0.12 0.11 0.10 0.10 0.10 0.10 0.09 0.09 0.09 0.09 0.10 0.10 0.10 0.10 0.10 0.10 0.11 0.11 0.12 0.13
0.44 0.44 0.41 0.38 0.34 0.31 0.30 0.28 0.27 0.27 0.26 0.24 0.23 0.23 0.23 0.23 0.20 0.19 0.16 0.14 0.13 0.12 0.11 0.12 0.11 0.10 0.10 0.10 0.10 0.10 0.10 0.09 0.09 0.10 0.10 0.10 0.09 0.10 0.10 0.10 0.11 0.11 0.11 0.12
0.41 0.38 0.36 0.34 0.32 0.30 0.29 0.28 0.26 0.25 0.24 0.22 0.21 0.21 0.22 0.22 0.19 0.16 0.14 0.13 0.12 0.11 0.11 0.11 0.10 0.10 0.09 0.10 0.10 0.10 0.10 0.09 0.09 0.09 0.08 0.08 0.08 0.08 0.08 0.09 0.10 0.11 0.11 0.11
0.36 0.35 0.33 0.32 0.32 0.31 0.28 0.25 0.23 0.22 0.22 0.22 0.21 0.21 0.21 0.18 0.15 0.13 0.12 0.11 0.11 0.11 0.10 0.10 0.10 0.10 0.10 0.09 0.10 0.10 0.10 0.09 0.08 0.08 0.08 0.08 0.08 0.08 0.08 0.08 0.08 0.09 0.10 0.10

GFSNGP_prec_pwat_060.txt.gz
Precipitable_Water
0.28 0.29 0.32 0.33 0.33 0.33 0.33 0.34 0.28 0.30 0.30 0.31 0.30 0.32 0.37 0.40 0.40 0.41 0.44 0.47 0.54 0.62 0.71 0.81 0.87 0.88 0.89 0.89 0.92 0.94 0.94 0.93 0.91 0.92 0.95 0.96 0.88 0.79 0.83 0.82 0.74 0.65 0.67 0.67
0.29 0.33 0.34 0.32 0.32 0.32 0.32 0.37 0.34 0.32 0.29 0.36 0.36 0.35 0.35 0.39 0.41 0.43 0.47 0.52 0.57 0.63 0.70 0.77 0.78 0.79 0.82 0.83 0.83 0.82 0.84 0.84 0.84 0.89 0.90 0.82 0.79 0.75 0.74 0.63 0.66 0.70 0.70 0.66
0.25 0.32 0.31 0.26 0.28 0.30 0.27 0.27 0.26 0.21 0.25 0.32 0.31 0.32 0.33 0.38 0.44 0.47 0.50 0.53 0.55 0.60 0.63 0.66 0.70 0.75 0.74 0.77 0.80 0.77 0.75 0.75 0.78 0.78 0.74 0.71 0.68 0.66 0.64 0.70 0.73 0.68 0.61 0.54
0.29 0.32 0.21 0.25 0.34 0.31 0.26 0.24 0.25 0.24 0.25 0.27 0.28 0.33 0.38 0.42 0.45 0.46 0.49 0.50 0.52 0.55 0.57 0.58 0.61 0.62 0.63 0.64 0.65 0.66 0.68 0.69 0.68 0.64 0.66 0.67 0.69 0.73 0.71 0.70 0.63 0.55 0.49 0.42
0.28 0.27 0.30 0.29 0.28 0.24 0.19 0.15 0.22 0.22 0.28 0.33 0.39 0.42 0.41 0.47 0.48 0.47 0.47 0.49 0.49 0.53 0.55 0.56 0.56 0.59 0.60 0.61 0.64 0.66 0.64 0.65 0.66 0.64 0.64 0.69 0.68 0.68 0.61 0.54 0.48 0.42 0.37 0.30
0.32 0.25 0.20 0.30 0.30 0.31 0.29 0.16 0.29 0.34 0.33 0.34 0.38 0.28 0.34 0.43 0.44 0.44 0.47 0.50 0.51 0.49 0.49 0.52 0.54 0.58 0.60 0.59 0.61 0.61 0.62 0.62 0.66 0.68 0.70 0.66 0.59 0.55 0.51 0.46 0.38 0.31 0.25 0.23
0.31 0.27 0.30 0.41 0.39 0.38 0.23 0.17 0.26 0.31 0.34 0.38 0.34 0.36 0.41 0.43 0.45 0.48 0.47 0.44 0.45 0.47 0.48 0.50 0.54 0.56 0.55 0.55 0.55 0.59 0.62 0.68 0.68 0.62 0.57 0.55 0.50 0.45 0.38 0.30 0.25 0.22 0.21 0.22
0.35 0.30 0.26 0.46 0.44 0.33 0.29 0.31 0.33 0.36 0.38 0.39 0.42 0.43 0.42 0.44 0.44 0.42 0.41 0.42 0.44 0.45 0.46 0.48 0.51 0.51 0.50 0.51 0.58 0.63 0.61 0.56 0.53 0.51 0.48 0.44 0.40 0.33 0.28 0.25 0.23 0.22 0.22 0.22
0.38 0.34 0.46 0.48 0.46 0.45 0.37 0.33 0.36 0.38 0.43 0.45 0.44 0.43 0.43 0.40 0.40 0.41 0.41 0.43 0.45 0.47 0.48 0.50 0.51 0.52 0.52 0.59 0.58 0.55 0.52 0.49 0.46 0.44 0.41 0.36 0.30 0.26 0.25 0.24 0.23 0.22 0.21 0.21
0.46 0.50 0.50 0.53 0.53 0.51 0.40 0.37 0.41 0.44 0.45 0.45 0.42 0.42 0.41 0.41 0.40 0.40 0.42 0.44 0.47 0.49 0.48 0.47 0.52 0.57 0.57 0.55 0.54 0.48 0.45 0.42 0.38 0.33 0.28 0.26 0.24 0.22 0.20 0.18 0.17 0.17 0.18 0.17
0.47 0.52 0.56 0.55 0.54 0.46 0.41 0.44 0.46 0.47 0.46 0.45 0.44 0.42 0.43 0.43 0.42 0.43 0.45 0.47 0.49 0.49 0.50 0.54 0.57 0.54 0.52 0.49 0.45 0.39 0.35 0.31 0.27 0.23 0.20 0.18 0.17 0.16 0.16 0.17 0.18 0.17 0.17 0.18
0.41 0.54 0.54 0.50 0.49 0.47 0.43 0.45 0.48 0.46 0.45 0.47 0.47 0.45 0.47 0.47 0.48 0.47 0.47 0.50 0.51 0.52 0.54 0.53 0.50 0.47 0.44 0.40 0.35 0.30 0.25 0.23 0.21 0.18 0.16 0.15 0.15 0.15 0.17 0.17 0.17 0.18 0.18 0.19
0.48 0.61 0.59 0.55 0.49 0.50 0.48 0.49 0.50 0.51 0.51 0.48 0.50 0.52 0.52 0.51 0.51 0.49 0.50 0.50 0.49 0.51 0.50 0.47 0.43 0.38 0.35 0.32 0.29 0.25 0.21 0.19 0.17 0.16 0.16 0.15 0.15 0.14 0.12 0.14 0.16 0.17 0.17 0.16
0.62 0.61 0.54 0.53 0.48 0.55 0.55 0.54 0.56 0.55 0.54 0.54 0.55 0.57 0.55 0.52 0.50 0.49 0.49 0.51 0.52 0.48 0.44 0.38 0.35 0.32 0.30 0.27 0.24 0.21 0.18 0.17 0.16 0.16 0.16 0.15 0.14 0.14 0.14 0.13 0.11 0.11 0.13 0.14
0.61 0.64 0.61 0.60 0.61 0.60 0.61 0.60 0.56 0.55 0.55 0.56 0.58 0.57 0.54 0.50 0.49 0.50 0.52 0.50 0.46 0.41 0.36 0.33 0.30 0.28 0.27 0.24 0.20 0.18 0.18 0.17 0.16 0.16 0.15 0.14 0.13 0.11 0.12 0.12 0.11 0.12 0.11 0.11
0.63 0.63 0.62 0.60 0.62 0.61 0.60 0.59 0.57 0.57 0.59 0.59 0.58 0.54 0.52 0.52 0.52 0.53 0.49 0.44 0.36 0.32 0.32 0.30 0.27 0.26 0.24 0.21 0.19 0.18 0.17 0.16 0.15 0.14 0.12 0.12 0.11 0.10 0.11 0.11 0.11 0.11 0.11 0.10
0.62 0.61 0.63 0.63 0.62 0.64 0.63 0.64 0.63 0.63 0.63 0.60 0.55 0.54 0.53 0.51 0.48 0.44 0.38 0.36 0.34 0.32 0.30 0.27 0.25 0.22 0.21 0.20 0.19 0.17 0.16 0.15 0.13 0.12 0.11 0.10 0.10 0.10 0.10 0.10 0.09 0.09 0.10 0.11
0.74 0.71 0.69 0.67 0.66 0.63 0.63 0.65 0.65 0.64 0.60 0.56 0.53 0.51 0.49 0.44 0.37 0.37 0.36 0.34 0.32 0.30 0.28 0.25 0.22 0.20 0.19 0.19 0.18 0.16 0.14 0.13 0.11 0.10 0.10 0.09 0.09 0.10 0.09 0.09 0.09 0.09 0.09 0.10
0.70 0.68 0.67 0.65 0.64 0.64 0.65 0.65 0.63 0.57 0.55 0.53 0.48 0.43 0.39 0.40 0.37 0.35 0.33 0.30 0.27 0.25 0.24 0.23 0.21 0.20 0.19 0.18 0.15 0.14 0.12 0.11 0.10 0.10 0.09 0.09 0.09 0.09 0.08 0.09 0.08 0.08 0.09 0.09
0.66 0.68 0.68 0.67 0.66 0.66 0.62 0.58 0.56 0.53 0.50 0.44 0.42 0.41 0.38 0.36 0.34 0.31 0.30 0.26 0.24 0.24 0.24 0.22 0.21 0.19 0.17 0.16 0.14 0.12 0.11 0.10 0.09 0.09 0.09 0.09 0.08 0.08 0.08 0.08 0.08 0.08 0.08 0.09
0.65 0.65 0.65 0.64 0.60 0.57 0.56 0.54 0.49 0.44 0.45 0.43 0.38 0.35 0.33 0.32 0.31 0.28 0.25 0.23 0.24 0.25 0.24 0.22 0.20 0.18 0.16 0.14 0.13 0.11 0.11 0.10 0.09 0.09 0.09 0.08 0.08 0.08 0.08 0.08 0.07 0.07 0.07 0.08
0.61 0.59 0.57 0.57 0.55 0.53 0.51 0.48 0.46 0.43 0.39 0.35 0.34 0.32 0.31 0.29 0.28 0.26 0.25 0.23 0.25 0.25 0.23 0.21 0.19 0.17 0.15 0.13 0.12 0.11 0.10 0.10 0.09 0.08 0.08 0.08 0.08 0.08 0.07 0.07 0.06 0.07 0.07 0.07
0.57 0.56 0.55 0.53 0.50 0.48 0.45 0.42 0.39 0.36 0.34 0.33 0.31 0.30 0.28 0.27 0.26 0.24 0.23 0.25 0.24 0.23 0.22 0.19 0.18 0.16 0.14 0.12 0.11 0.11 0.10 0.09 0.09 0.08 0.08 0.08 0.08 0.07 0.07 0.07 0.07 0.07 0.07 0.07
0.54 0.53 0.51 0.49 0.46 0.42 0.39 0.37 0.36 0.35 0.33 0.32 0.30 0.28 0.27 0.26 0.26 0.26 0.25 0.25 0.23 0.22 0.20 0.18 0.16 0.14 0.12 0.11 0.11 0.10 0.10 0.09 0.09 0.09 0.09 0.08 0.07 0.07 0.07 0.07 0.07 0.07 0.07 0.07
0.50 0.48 0.46 0.43 0.41 0.39 0.38 0.37 0.35 0.33 0.31 0.30 0.29 0.29 0.28 0.27 0.25 0.25 0.24 0.23 0.21 0.19 0.17 0.16 0.14 0.13 0.12 0.10 0.10 0.09 0.09 0.09 0.09 0.09 0.08 0.08 0.07 0.07 0.07 0.07 0.07 0.07 0.07 0.07
0.45 0.44 0.43 0.42 0.40 0.39 0.37 0.34 0.31 0.30 0.29 0.28 0.27 0.27 0.26 0.26 0.25 0.24 0.22 0.20 0.19 0.17 0.15 0.14 0.14 0.12 0.11 0.10 0.09 0.09 0.09 0.09 0.09 0.08 0.08 0.07 0.07 0.07 0.06 0.06 0.07 0.07 0.07 0.08
0.40 0.39 0.38 0.37 0.36 0.35 0.34 0.32 0.31 0.29 0.28 0.27 0.25 0.26 0.26 0.25 0.23 0.22 0.20 0.18 0.16 0.15 0.14 0.13 0.12 0.11 0.10 0.09 0.09 0.09 0.09 0.09 0.09 0.08 0.08 0.07 0.07 0.07 0.06 0.06 0.07 0.07 0.08 0.09

GFSNGP_prec_pwat_066.txt.gz
Precipitable_Water
0.28 0.28 0.27 0.26 0.24 0.26 0.25 0.26 0.23 0.27 0.29 0.31 0.36 0.42 0.44 0.45 0.40 0.34 0.36 0.41 0.50 0.60 0.69 0.73 0.77 0.83 0.89 0.88 0.92 1.01 0.96 0.95 0.93 0.94 0.92 0.91 0.89 0.88 0.84 0.82 0.79 0.78 0.79 0.78
0.27 0.29 0.29 0.26 0.27 0.29 0.30 0.31 0.32 0.32 0.28 0.35 0.37 0.44 0.43 0.42 0.40 0.40 0.42 0.45 0.51 0.59 0.70 0.75 0.82 0.86 0.93 0.93 0.96 0.96 0.91 0.90 0.89 0.86 0.86 0.85 0.81 0.75 0.73 0.75 0.75 0.73 0.74 0.71
0.25 0.32 0.31 0.24 0.26 0.29 0.31 0.33 0.32 0.27 0.31 0.36 0.32 0.33 0.36 0.39 0.42 0.43 0.45 0.50 0.53 0.58 0.63 0.72 0.79 0.85 0.86 0.90 0.92 0.89 0.87 0.83 0.83 0.80 0.74 0.69 0.68 0.68 0.71 0.69 0.70 0.67 0.70 0.68
0.28 0.31 0.22 0.27 0.36 0.35 0.33 0.32 0.33 0.33 0.33 0.34 0.32 0.32 0.35 0.40 0.42 0.43 0.45 0.47 0.52 0.58 0.62 0.69 0.73 0.73 0.74 0.74 0.73 0.72 0.69 0.66 0.65 0.66 0.64 0.66 0.67 0.68 0.68 0.69 0.68 0.66 0.60 0.54
0.29 0.27 0.29 0.31 0.32 0.32 0.31 0.30 0.37 0.36 0.34 0.31 0.33 0.32 0.32 0.40 0.47 0.48 0.50 0.53 0.55 0.59 0.61 0.63 0.63 0.64 0.63 0.62 0.63 0.61 0.60 0.61 0.62 0.64 0.65 0.66 0.66 0.65 0.67 0.63 0.57 0.52 0.46 0.40
0.34 0.28 0.23 0.29 0.35 0.41 0.41 0.27 0.36 0.37 0.34 0.32 0.32 0.23 0.30 0.43 0.48 0.50 0.53 0.54 0.54 0.57 0.59 0.60 0.60 0.62 0.59 0.55 0.55 0.54 0.56 0.59 0.62 0.64 0.63 0.62 0.59 0.56 0.55 0.51 0.43 0.38 0.34 0.34
0.36 0.32 0.33 0.39 0.41 0.42 0.29 0.24 0.42 0.40 0.40 0.37 0.30 0.34 0.43 0.46 0.48 0.52 0.53 0.53 0.55 0.55 0.55 0.57 0.59 0.56 0.51 0.52 0.52 0.57 0.58 0.58 0.58 0.58 0.55 0.55 0.52 0.49 0.44 0.39 0.36 0.35 0.34 0.32
0.39 0.32 0.28 0.44 0.42 0.34 0.35 0.45 0.45 0.43 0.46 0.45 0.45 0.39 0.40 0.44 0.47 0.49 0.50 0.51 0.51 0.52 0.54 0.55 0.55 0.53 0.51 0.50 0.53 0.54 0.54 0.56 0.54 0.53 0.50 0.48 0.44 0.40 0.36 0.32 0.29 0.27 0.25 0.23
0.40 0.38 0.49 0.50 0.46 0.49 0.48 0.48 0.49 0.48 0.49 0.53 0.48 0.41 0.41 0.43 0.46 0.47 0.48 0.49 0.52 0.51 0.48 0.48 0.50 0.50 0.48 0.50 0.53 0.54 0.53 0.51 0.49 0.45 0.42 0.37 0.32 0.28 0.26 0.26 0.25 0.23 0.22 0.23
0.48 0.48 0.49 0.54 0.56 0.56 0.56 0.54 0.56 0.57 0.56 0.55 0.49 0.45 0.43 0.44 0.45 0.46 0.47 0.48 0.50 0.48 0.46 0.46 0.50 0.51 0.51 0.52 0.53 0.51 0.47 0.44 0.41 0.36 0.33 0.29 0.27 0.26 0.25 0.25 0.22 0.22 0.22 0.22
0.42 0.49 0.56 0.56 0.56 0.57 0.63 0.62 0.58 0.59 0.59 0.58 0.50 0.46 0.46 0.46 0.46 0.47 0.48 0.48 0.49 0.49 0.49 0.48 0.50 0.51 0.52 0.52 0.49 0.45 0.41 0.37 0.34 0.31 0.28 0.27 0.27 0.25 0.24 0.25 0.22 0.21 0.21 0.19
0.37 0.50 0.52 0.55 0.63 0.61 0.62 0.60 0.60 0.59 0.61 0.59 0.53 0.49 0.48 0.48 0.48 0.48 0.46 0.48 0.50 0.52 0.53 0.52 0.53 0.51 0.49 0.47 0.43 0.38 0.34 0.32 0.29 0.29 0.27 0.25 0.24 0.23 0.25 0.23 0.21 0.20 0.19 0.17
0.45 0.55 0.57 0.61 0.64 0.64 0.62 0.62 0.63 0.63 0.65 0.57 0.54 0.52 0.51 0.50 0.51 0.50 0.51 0.53 0.54 0.54 0.55 0.55 0.51 0.48 0.45 0.41 0.37 0.34 0.31 0.29 0.28 0.27 0.26 0.24 0.22 0.21 0.20 0.22 0.21 0.19 0.18 0.16
0.58 0.58 0.53 0.57 0.56 0.63 0.64 0.64 0.65 0.65 0.63 0.58 0.55 0.56 0.55 0.53 0.53 0.54 0.55 0.57 0.57 0.57 0.56 0.54 0.48 0.42 0.40 0.37 0.35 0.32 0.30 0.28 0.27 0.26 0.24 0.22 0.21 0.21 0.20 0.18 0.17 0.17 0.17 0.15
0.58 0.60 0.60 0.61 0.62 0.62 0.65 0.65 0.62 0.60 0.57 0.55 0.59 0.58 0.57 0.56 0.56 0.57 0.57 0.57 0.57 0.58 0.55 0.49 0.42 0.38 0.38 0.35 0.33 0.30 0.29 0.27 0.26 0.24 0.22 0.21 0.21 0.20 0.18 0.16 0.15 0.15 0.14 0.14
0.57 0.58 0.58 0.57 0.58 0.59 0.60 0.63 0.62 0.60 0.59 0.59 0.60 0.60 0.60 0.61 0.60 0.58 0.57 0.58 0.56 0.51 0.46 0.41 0.38 0.38 0.37 0.34 0.30 0.29 0.27 0.24 0.22 0.22 0.21 0.20 0.19 0.17 0.16 0.15 0.14 0.14 0.13 0.13
0.51 0.50 0.55 0.56 0.60 0.60 0.62 0.66 0.66 0.65 0.65 0.65 0.64 0.64 0.62 0.60 0.59 0.59 0.58 0.56 0.52 0.45 0.41 0.41 0.38 0.35 0.33 0.31 0.28 0.26 0.24 0.23 0.21 0.21 0.20 0.18 0.16 0.15 0.15 0.14 0.13 0.13 0.12 0.13
0.65 0.64 0.67 0.68 0.68 0.67 0.66 0.68 0.68 0.68 0.69 0.69 0.68 0.66 0.63 0.60 0.57 0.55 0.53 0.47 0.44 0.45 0.42 0.38 0.35 0.32 0.29 0.27 0.25 0.24 0.23 0.21 0.21 0.19 0.17 0.16 0.15 0.14 0.14 0.13 0.12 0.12 0.12 0.11
0.74 0.72 0.71 0.72 0.71 0.71 0.71 0.70 0.69 0.68 0.67 0.65 0.63 0.59 0.58 0.56 0.54 0.50 0.48 0.46 0.42 0.38 0.36 0.34 0.31 0.28 0.26 0.25 0.24 0.23 0.22 0.21 0.19 0.17 0.16 0.15 0.15 0.14 0.13 0.12 0.12 0.11 0.11 0.10
0.72 0.71 0.69 0.70 0.71 0.68 0.65 0.66 0.64 0.63 0.62 0.60 0.58 0.55 0.51 0.50 0.49 0.47 0.45 0.41 0.38 0.35 0.32 0.30 0.28 0.27 0.25 0.24 0.24 0.22 0.21 0.19 0.18 0.17 0.16 0.14 0.14 0.13 0.13 0.12 0.11 0.10 0.10 0.10
0.66 0.67 0.66 0.64 0.61 0.61 0.61 0.60 0.58 0.56 0.56 0.55 0.52 0.49 0.48 0.47 0.45 0.42 0.37 0.34 0.33 0.32 0.30 0.29 0.27 0.26 0.25 0.24 0.23 0.22 0.20 0.19 0.18 0.16 0.15 0.14 0.13 0.13 0.12 0.12 0.11 0.10 0.09 0.09
0.61 0.60 0.58 0.58 0.56 0.55 0.56 0.56 0.54 0.52 0.50 0.49 0.48 0.46 0.43 0.40 0.37 0.35 0.35 0.33 0.32 0.30 0.29 0.29 0.28 0.26 0.25 0.23 0.22 0.22 0.20 0.19 0.17 0.16 0.15 0.14 0.13 0.12 0.11 0.10 0.09 0.09 0.09 0.09
0.56 0.56 0.55 0.54 0.52 0.51 0.52 0.51 0.49 0.48 0.46 0.44 0.42 0.40 0.37 0.36 0.35 0.32 0.29 0.30 0.30 0.29 0.29 0.28 0.27 0.25 0.24 0.23 0.22 0.20 0.19 0.17 0.16 0.15 0.14 0.13 0.12 0.11 0.10 0.09 0.08 0.08 0.08 0.08
0.53 0.52 0.50 0.49 0.48 0.46 0.43 0.42 0.41 0.40 0.39 0.38 0.36 0.36 0.34 0.32 0.30 0.30 0.29 0.29 0.28 0.29 0.28 0.27 0.25 0.23 0.22 0.21 0.20 0.19 0.17 0.17 0.15 0.14 0.13 0.12 0.11 0.10 0.09 0.09 0.08 0.08 0.08 0.08
0.49 0.48 0.47 0.45 0.43 0.41 0.40 0.40 0.38 0.37 0.36 0.35 0.34 0.33 0.32 0.31 0.30 0.31 0.31 0.29 0.27 0.26 0.25 0.23 0.22 0.21 0.20 0.19 0.18 0.16 0.15 0.15 0.14 0.12 0.11 0.10 0.09 0.09 0.09 0.09 0.08 0.08 0.08 0.08
0.45 0.43 0.43 0.42 0.40 0.39 0.38 0.37 0.35 0.35 0.34 0.33 0.33 0.32 0.32 0.31 0.29 0.28 0.26 0.25 0.24 0.23 0.22 0.21 0.19 0.18 0.17 0.16 0.14 0.13 0.12 0.11 0.10 0.10 0.09 0.09 0.09 0.09 0.08 0.08 0.08 0.08 0.08 0.08
0.41 0.40 0.39 0.37 0.37 0.37 0.36 0.35 0.33 0.31 0.31 0.30 0.28 0.28 0.27 0.26 0.25 0.23 0.22 0.21 0.19 0.17 0.15 0.14 0.13 0.12 0.11 0.11 0.10 0.10 0.10 0.10 0.09 0.09 0.08 0.08 0.08 0.08 0.08 0.08 0.08 0.08 0.08 0.08

GFSNGP_prec_pwat_072.txt.gz
Precipitable_Water
0.36 0.36 0.37 0.35 0.33 0.33 0.33 0.35 0.32 0.38 0.35 0.36 0.39 0.37 0.41 0.46 0.53 0.51 0.60 0.52 0.48 0.51 0.71 0.79 0.76 0.79 0.82 0.84 0.87 0.91 0.89 0.92 0.96 1.00 1.00 1.05 1.07 1.05 1.05 1.03 0.99 0.95 0.89 0.84
0.36 0.36 0.35 0.34 0.38 0.35 0.31 0.30 0.33 0.33 0.32 0.38 0.37 0.36 0.42 0.41 0.41 0.45 0.48 0.56 0.53 0.50 0.73 0.87 0.89 0.85 0.89 0.88 0.91 0.92 0.92 0.92 0.95 0.98 1.01 1.01 1.02 0.99 0.98 0.96 0.91 0.84 0.79 0.75
0.31 0.38 0.34 0.27 0.34 0.34 0.31 0.33 0.32 0.28 0.31 0.35 0.40 0.39 0.39 0.41 0.42 0.42 0.48 0.53 0.57 0.58 0.81 0.85 0.85 0.81 0.77 0.82 0.89 0.90 0.91 0.93 0.96 0.98 0.97 0.95 0.95 0.91 0.87 0.82 0.78 0.70 0.67 0.67
0.37 0.36 0.24 0.33 0.39 0.37 0.34 0.34 0.35 0.35 0.35 0.38 0.38 0.39 0.43 0.47 0.45 0.46 0.49 0.49 0.47 0.63 0.75 0.77 0.79 0.78 0.76 0.79 0.83 0.87 0.89 0.89 0.89 0.89 0.87 0.82 0.77 0.74 0.69 0.65 0.63 0.63 0.64 0.64
0.34 0.34 0.34 0.33 0.39 0.39 0.34 0.31 0.38 0.36 0.37 0.41 0.43 0.46 0.46 0.49 0.48 0.45 0.47 0.52 0.58 0.66 0.70 0.71 0.69 0.70 0.74 0.77 0.79 0.77 0.74 0.74 0.74 0.73 0.70 0.68 0.63 0.60 0.61 0.62 0.63 0.63 0.61 0.55
0.44 0.31 0.27 0.39 0.41 0.45 0.43 0.30 0.39 0.37 0.39 0.41 0.45 0.40 0.44 0.50 0.49 0.49 0.53 0.57 0.60 0.66 0.69 0.70 0.72 0.73 0.66 0.63 0.64 0.63 0.65 0.66 0.68 0.68 0.65 0.59 0.59 0.61 0.62 0.62 0.58 0.53 0.50 0.49
0.40 0.38 0.40 0.47 0.46 0.46 0.30 0.33 0.38 0.40 0.43 0.45 0.43 0.48 0.50 0.52 0.53 0.57 0.57 0.56 0.62 0.64 0.64 0.66 0.68 0.66 0.61 0.61 0.59 0.62 0.65 0.66 0.64 0.61 0.60 0.60 0.61 0.59 0.54 0.50 0.50 0.49 0.45 0.42
0.42 0.37 0.31 0.52 0.48 0.38 0.39 0.46 0.46 0.48 0.49 0.47 0.52 0.52 0.51 0.52 0.52 0.56 0.57 0.61 0.63 0.61 0.61 0.63 0.65 0.63 0.59 0.58 0.62 0.63 0.64 0.60 0.57 0.55 0.53 0.53 0.52 0.50 0.49 0.48 0.45 0.41 0.37 0.35
0.45 0.42 0.54 0.56 0.54 0.61 0.60 0.54 0.55 0.59 0.58 0.57 0.56 0.53 0.56 0.56 0.58 0.60 0.60 0.62 0.66 0.64 0.62 0.64 0.64 0.63 0.58 0.59 0.63 0.60 0.56 0.52 0.51 0.51 0.51 0.52 0.51 0.47 0.41 0.39 0.37 0.36 0.34 0.32
0.48 0.56 0.64 0.66 0.67 0.65 0.62 0.61 0.61 0.62 0.59 0.61 0.61 0.61 0.59 0.58 0.58 0.59 0.63 0.63 0.66 0.65 0.63 0.61 0.63 0.63 0.61 0.60 0.59 0.57 0.53 0.52 0.52 0.50 0.48 0.45 0.42 0.39 0.38 0.37 0.35 0.33 0.31 0.31
0.41 0.44 0.50 0.59 0.60 0.69 0.68 0.67 0.64 0.64 0.62 0.61 0.66 0.63 0.62 0.60 0.59 0.62 0.64 0.65 0.66 0.65 0.64 0.62 0.61 0.58 0.59 0.60 0.59 0.54 0.53 0.53 0.52 0.49 0.47 0.42 0.41 0.39 0.38 0.37 0.34 0.31 0.31 0.29
0.38 0.41 0.44 0.48 0.55 0.59 0.63 0.66 0.69 0.67 0.64 0.67 0.68 0.67 0.65 0.63 0.62 0.64 0.64 0.65 0.65 0.64 0.61 0.59 0.57 0.57 0.57 0.57 0.55 0.53 0.51 0.52 0.52 0.48 0.43 0.41 0.40 0.36 0.35 0.33 0.32 0.29 0.26 0.24
0.47 0.54 0.55 0.57 0.61 0.63 0.62 0.64 0.70 0.73 0.72 0.68 0.69 0.69 0.67 0.63 0.64 0.66 0.66 0.65 0.63 0.61 0.60 0.56 0.53 0.51 0.51 0.52 0.52 0.52 0.52 0.49 0.47 0.44 0.41 0.37 0.35 0.33 0.33 0.35 0.34 0.32 0.30 0.28
0.39 0.54 0.50 0.54 0.52 0.53 0.57 0.63 0.67 0.69 0.69 0.69 0.70 0.70 0.68 0.63 0.64 0.65 0.65 0.65 0.63 0.59 0.55 0.51 0.49 0.49 0.52 0.53 0.52 0.51 0.50 0.48 0.45 0.44 0.42 0.38 0.37 0.35 0.32 0.30 0.30 0.30 0.31 0.29
0.54 0.59 0.58 0.58 0.57 0.56 0.58 0.59 0.59 0.59 0.60 0.61 0.64 0.63 0.63 0.62 0.61 0.64 0.65 0.63 0.59 0.54 0.51 0.50 0.51 0.51 0.52 0.53 0.52 0.49 0.48 0.50 0.47 0.43 0.40 0.37 0.34 0.32 0.31 0.29 0.27 0.26 0.26 0.27
0.56 0.52 0.54 0.57 0.57 0.58 0.59 0.60 0.57 0.57 0.58 0.59 0.59 0.59 0.60 0.61 0.61 0.61 0.61 0.59 0.54 0.52 0.54 0.54 0.55 0.54 0.52 0.54 0.53 0.51 0.45 0.44 0.42 0.40 0.37 0.34 0.31 0.29 0.27 0.27 0.26 0.24 0.23 0.23
0.48 0.46 0.51 0.52 0.53 0.55 0.58 0.60 0.58 0.56 0.57 0.57 0.57 0.60 0.59 0.57 0.58 0.58 0.60 0.60 0.59 0.58 0.57 0.55 0.53 0.53 0.49 0.47 0.46 0.45 0.44 0.41 0.35 0.33 0.31 0.30 0.28 0.27 0.26 0.25 0.24 0.23 0.22 0.23
0.54 0.54 0.55 0.56 0.55 0.54 0.54 0.54 0.58 0.60 0.59 0.60 0.61 0.62 0.62 0.62 0.59 0.58 0.57 0.57 0.55 0.53 0.52 0.51 0.50 0.48 0.46 0.44 0.42 0.39 0.36 0.33 0.31 0.30 0.29 0.28 0.28 0.26 0.24 0.24 0.23 0.22 0.22 0.22
0.55 0.57 0.58 0.58 0.58 0.55 0.56 0.59 0.60 0.61 0.64 0.62 0.60 0.58 0.58 0.57 0.55 0.54 0.53 0.51 0.49 0.47 0.47 0.48 0.46 0.44 0.40 0.38 0.36 0.34 0.32 0.30 0.30 0.28 0.28 0.27 0.26 0.25 0.25 0.24 0.22 0.21 0.20 0.19
0.58 0.60 0.61 0.60 0.59 0.57 0.57 0.62 0.63 0.62 0.63 0.62 0.59 0.56 0.54 0.52 0.52 0.50 0.49 0.47 0.46 0.46 0.45 0.42 0.39 0.36 0.34 0.32 0.31 0.31 0.30 0.29 0.28 0.27 0.27 0.26 0.24 0.24 0.23 0.21 0.21 0.20 0.18 0.17
0.61 0.64 0.64 0.63 0.58 0.59 0.60 0.60 0.60 0.57 0.57 0.55 0.52 0.50 0.48 0.48 0.48 0.47 0.44 0.41 0.42 0.40 0.37 0.36 0.34 0.32 0.30 0.28 0.28 0.30 0.30 0.28 0.27 0.25 0.24 0.23 0.22 0.21 0.20 0.19 0.18 0.17 0.16 0.15
0.59 0.59 0.59 0.59 0.59 0.57 0.57 0.56 0.55 0.53 0.51 0.49 0.48 0.47 0.45 0.44 0.43 0.42 0.41 0.37 0.36 0.35 0.34 0.33 0.31 0.28 0.28 0.28 0.29 0.27 0.25 0.24 0.23 0.21 0.20 0.19 0.18 0.16 0.15 0.14 0.12 0.11 0.11 0.10
0.56 0.56 0.56 0.55 0.54 0.53 0.53 0.52 0.51 0.49 0.47 0.46 0.44 0.43 0.41 0.40 0.40 0.36 0.32 0.34 0.33 0.33 0.32 0.30 0.28 0.27 0.25 0.24 0.23 0.21 0.19 0.17 0.15 0.14 0.13 0.12 0.12 0.11 0.11 0.10 0.11 0.10 0.10 0.10
0.53 0.52 0.52 0.52 0.51 0.48 0.45 0.45 0.44 0.43 0.42 0.41 0.40 0.40 0.39 0.35 0.34 0.33 0.33 0.32 0.30 0.28 0.26 0.24 0.22 0.19 0.17 0.16 0.14 0.13 0.13 0.12 0.12 0.12 0.11 0.10 0.10 0.10 0.10 0.10 0.10 0.10 0.10 0.10
0.49 0.48 0.47 0.45 0.43 0.42 0.41 0.41 0.40 0.39 0.38 0.37 0.36 0.36 0.35 0.35 0.31 0.30 0.28 0.25 0.22 0.21 0.18 0.16 0.14 0.13 0.12 0.13 0.12 0.11 0.11 0.11 0.11 0.10 0.10 0.10 0.09 0.09 0.10 0.10 0.10 0.10 0.10 0.09
0.46 0.45 0.45 0.44 0.43 0.41 0.40 0.39 0.37 0.36 0.35 0.32 0.32 0.30 0.29 0.27 0.24 0.21 0.18 0.17 0.16 0.15 0.14 0.14 0.13 0.12 0.11 0.11 0.09 0.09 0.09 0.09 0.09 0.09 0.09 0.09 0.09 0.09 0.09 0.09 0.09 0.09 0.09 0.09
0.42 0.41 0.40 0.38 0.38 0.37 0.36 0.34 0.32 0.30 0.30 0.26 0.22 0.20 0.19 0.19 0.17 0.16 0.15 0.14 0.13 0.12 0.12 0.11 0.11 0.10 0.10 0.09 0.09 0.09 0.08 0.08 0.09 0.09 0.09 0.09 0.08 0.09 0.09 0.09 0.09 0.09 0.08 0.08

GFSNGP_prec_pwat_075.txt.gz
Precipitable_Water
0.44 0.41 0.45 0.41 0.36 0.35 0.30 0.30 0.33 0.34 0.33 0.39 0.44 0.41 0.43 0.45 0.45 0.47 0.49 0.50 0.52 0.58 0.60 0.66 0.64 0.61 0.71 0.79 0.87 0.92 0.91 0.91 0.93 1.00 1.04 1.05 1.05 1.04 1.07 1.07 1.06 1.03 1.01 0.97
0.40 0.43 0.39 0.43 0.43 0.37 0.32 0.33 0.37 0.38 0.40 0.48 0.47 0.45 0.42 0.44 0.46 0.47 0.50 0.49 0.52 0.57 0.69 0.73 0.76 0.73 0.72 0.75 0.84 0.90 0.86 0.86 0.90 0.95 0.99 0.98 0.98 1.01 1.04 1.02 1.01 0.97 0.93 0.90
0.35 0.41 0.39 0.34 0.38 0.37 0.37 0.38 0.35 0.29 0.34 0.38 0.36 0.38 0.38 0.42 0.44 0.45 0.49 0.50 0.53 0.62 0.74 0.80 0.81 0.81 0.80 0.78 0.79 0.79 0.81 0.86 0.89 0.91 0.90 0.93 0.95 0.95 0.94 0.92 0.92 0.87 0.82 0.76
0.37 0.41 0.27 0.38 0.42 0.42 0.37 0.41 0.40 0.39 0.36 0.37 0.38 0.40 0.42 0.47 0.47 0.49 0.51 0.51 0.58 0.61 0.64 0.72 0.76 0.81 0.86 0.85 0.84 0.82 0.79 0.81 0.86 0.87 0.88 0.89 0.89 0.89 0.87 0.81 0.75 0.70 0.64 0.61
0.35 0.35 0.38 0.39 0.41 0.38 0.36 0.38 0.42 0.38 0.38 0.37 0.40 0.44 0.44 0.50 0.52 0.50 0.51 0.56 0.63 0.65 0.67 0.69 0.75 0.81 0.81 0.77 0.74 0.68 0.69 0.75 0.81 0.85 0.83 0.79 0.74 0.72 0.70 0.66 0.62 0.60 0.60 0.60
0.41 0.32 0.25 0.37 0.44 0.48 0.44 0.33 0.45 0.42 0.39 0.38 0.42 0.36 0.43 0.54 0.55 0.57 0.61 0.64 0.62 0.64 0.66 0.68 0.72 0.76 0.70 0.66 0.69 0.73 0.76 0.74 0.73 0.72 0.70 0.66 0.66 0.64 0.63 0.61 0.59 0.58 0.55 0.53
0.40 0.38 0.39 0.47 0.44 0.50 0.33 0.32 0.41 0.39 0.40 0.41 0.39 0.43 0.50 0.59 0.59 0.60 0.59 0.61 0.68 0.68 0.66 0.68 0.71 0.70 0.66 0.66 0.63 0.66 0.67 0.68 0.67 0.68 0.67 0.66 0.63 0.60 0.59 0.58 0.55 0.52 0.51 0.52
0.42 0.36 0.31 0.55 0.52 0.37 0.45 0.49 0.45 0.45 0.49 0.52 0.51 0.54 0.55 0.59 0.59 0.59 0.57 0.63 0.67 0.66 0.68 0.74 0.75 0.72 0.64 0.60 0.63 0.65 0.67 0.68 0.68 0.67 0.65 0.62 0.60 0.56 0.55 0.54 0.54 0.53 0.50 0.46
0.43 0.42 0.58 0.60 0.55 0.60 0.58 0.54 0.55 0.53 0.57 0.60 0.57 0.56 0.59 0.58 0.58 0.60 0.62 0.65 0.69 0.68 0.69 0.73 0.74 0.73 0.67 0.67 0.68 0.67 0.68 0.66 0.64 0.62 0.61 0.58 0.55 0.53 0.54 0.54 0.52 0.47 0.42 0.39
0.42 0.50 0.57 0.66 0.63 0.62 0.64 0.60 0.62 0.65 0.63 0.63 0.62 0.62 0.60 0.62 0.63 0.64 0.68 0.70 0.72 0.71 0.70 0.70 0.74 0.73 0.71 0.71 0.69 0.66 0.63 0.59 0.58 0.57 0.55 0.54 0.55 0.55 0.53 0.50 0.45 0.41 0.38 0.37
0.37 0.44 0.60 0.57 0.63 0.66 0.66 0.70 0.68 0.69 0.66 0.62 0.64 0.64 0.66 0.66 0.67 0.68 0.70 0.72 0.74 0.73 0.71 0.70 0.72 0.70 0.70 0.69 0.67 0.61 0.57 0.56 0.54 0.54 0.52 0.52 0.54 0.52 0.47 0.45 0.43 0.40 0.37 0.36
0.38 0.44 0.45 0.47 0.56 0.58 0.58 0.73 0.73 0.72 0.70 0.69 0.68 0.67 0.69 0.69 0.71 0.71 0.70 0.72 0.71 0.69 0.69 0.67 0.66 0.64 0.63 0.65 0.62 0.57 0.53 0.53 0.52 0.52 0.52 0.49 0.47 0.45 0.45 0.41 0.38 0.36 0.33 0.31
0.46 0.61 0.62 0.61 0.62 0.66 0.62 0.62 0.68 0.67 0.72 0.69 0.70 0.73 0.74 0.72 0.71 0.71 0.70 0.70 0.69 0.64 0.64 0.66 0.65 0.63 0.62 0.60 0.57 0.54 0.53 0.53 0.53 0.50 0.47 0.48 0.48 0.46 0.44 0.43 0.42 0.42 0.39 0.36
0.46 0.50 0.52 0.59 0.53 0.60 0.63 0.65 0.66 0.67 0.67 0.69 0.70 0.72 0.71 0.69 0.69 0.67 0.65 0.64 0.63 0.62 0.62 0.64 0.62 0.61 0.61 0.59 0.57 0.55 0.54 0.51 0.50 0.52 0.51 0.50 0.47 0.43 0.42 0.41 0.38 0.37 0.38 0.36
0.49 0.51 0.51 0.55 0.58 0.59 0.61 0.60 0.57 0.55 0.56 0.57 0.61 0.61 0.63 0.61 0.60 0.59 0.58 0.58 0.60 0.60 0.61 0.62 0.61 0.60 0.59 0.57 0.55 0.55 0.56 0.55 0.53 0.51 0.48 0.46 0.44 0.42 0.39 0.37 0.35 0.33 0.31 0.32
0.49 0.54 0.57 0.54 0.55 0.57 0.57 0.56 0.54 0.54 0.55 0.56 0.57 0.58 0.59 0.59 0.58 0.58 0.58 0.59 0.59 0.57 0.58 0.58 0.58 0.59 0.59 0.58 0.56 0.53 0.52 0.51 0.49 0.47 0.45 0.42 0.40 0.37 0.34 0.32 0.31 0.30 0.28 0.28
0.43 0.43 0.46 0.47 0.48 0.50 0.56 0.59 0.60 0.59 0.59 0.58 0.58 0.58 0.57 0.56 0.56 0.56 0.58 0.60 0.61 0.60 0.58 0.56 0.54 0.55 0.54 0.53 0.51 0.49 0.47 0.46 0.44 0.41 0.38 0.36 0.34 0.32 0.30 0.29 0.28 0.27 0.26 0.26
0.55 0.56 0.53 0.49 0.48 0.49 0.52 0.55 0.56 0.55 0.53 0.52 0.53 0.57 0.58 0.58 0.57 0.58 0.57 0.57 0.55 0.53 0.52 0.52 0.51 0.51 0.49 0.48 0.46 0.44 0.41 0.38 0.35 0.33 0.32 0.30 0.29 0.28 0.27 0.27 0.26 0.25 0.24 0.23
0.57 0.55 0.56 0.57 0.57 0.55 0.55 0.55 0.54 0.53 0.53 0.56 0.56 0.55 0.57 0.58 0.57 0.55 0.54 0.52 0.49 0.47 0.47 0.48 0.47 0.44 0.42 0.40 0.38 0.36 0.33 0.31 0.30 0.29 0.28 0.28 0.27 0.26 0.25 0.24 0.22 0.22 0.21 0.20
0.56 0.57 0.58 0.57 0.58 0.58 0.56 0.56 0.55 0.54 0.55 0.55 0.55 0.54 0.53 0.53 0.52 0.51 0.49 0.46 0.46 0.45 0.44 0.41 0.40 0.37 0.34 0.32 0.32 0.32 0.31 0.30 0.29 0.27 0.26 0.25 0.24 0.22 0.21 0.20 0.19 0.18 0.17 0.16
0.52 0.54 0.55 0.57 0.57 0.58 0.59 0.57 0.54 0.51 0.52 0.53 0.52 0.51 0.50 0.49 0.48 0.47 0.44 0.41 0.41 0.40 0.38 0.35 0.33 0.31 0.29 0.30 0.31 0.29 0.27 0.25 0.23 0.21 0.20 0.18 0.17 0.15 0.14 0.13 0.13 0.12 0.11 0.11
0.51 0.55 0.56 0.56 0.55 0.54 0.56 0.55 0.55 0.53 0.52 0.51 0.50 0.48 0.46 0.44 0.43 0.41 0.39 0.37 0.37 0.36 0.34 0.32 0.30 0.28 0.27 0.26 0.24 0.22 0.19 0.16 0.14 0.13 0.13 0.12 0.11 0.11 0.11 0.11 0.10 0.10 0.10 0.10
0.51 0.53 0.53 0.53 0.52 0.52 0.52 0.51 0.51 0.50 0.48 0.47 0.45 0.43 0.42 0.40 0.38 0.35 0.32 0.35 0.33 0.31 0.29 0.26 0.23 0.21 0.19 0.17 0.15 0.14 0.13 0.12 0.11 0.11 0.11 0.10 0.10 0.10 0.10 0.09 0.09 0.10 0.09 0.09
0.50 0.50 0.50 0.50 0.50 0.48 0.46 0.46 0.46 0.46 0.44 0.43 0.41 0.39 0.37 0.35 0.34 0.33 0.32 0.29 0.26 0.23 0.20 0.17 0.15 0.14 0.13 0.12 0.11 0.10 0.10 0.10 0.10 0.10 0.09 0.09 0.09 0.09 0.08 0.08 0.09 0.09 0.09 0.09
0.48 0.47 0.47 0.45 0.44 0.43 0.43 0.42 0.41 0.39 0.38 0.37 0.37 0.36 0.34 0.32 0.28 0.25 0.22 0.20 0.19 0.17 0.15 0.15 0.13 0.12 0.11 0.10 0.09 0.09 0.09 0.08 0.08 0.08 0.08 0.08 0.08 0.08 0.08 0.08 0.08 0.08 0.08 0.08
0.44 0.43 0.44 0.44 0.42 0.42 0.41 0.39 0.37 0.36 0.34 0.31 0.29 0.27 0.25 0.22 0.20 0.18 0.17 0.15 0.14 0.13 0.13 0.12 0.11 0.10 0.09 0.09 0.08 0.08 0.08 0.07 0.07 0.07 0.07 0.07 0.07 0.07 0.08 0.08 0.08 0.08 0.08 0.08
0.42 0.41 0.40 0.39 0.39 0.38 0.36 0.34 0.31 0.28 0.25 0.21 0.19 0.19 0.18 0.17 0.16 0.15 0.14 0.12 0.11 0.10 0.10 0.10 0.09 0.08 0.07 0.07 0.07 0.07 0.07 0.07 0.07 0.07 0.07 0.07 0.07 0.08 0.07 0.07 0.07 0.07 0.08 0.08

GFSNGP_prec_pwat_078.txt.gz
Precipitable_Water
0.33 0.37 0.43 0.42 0.41 0.39 0.37 0.36 0.30 0.30 0.35 0.38 0.43 0.47 0.50 0.48 0.46 0.47 0.45 0.49 0.53 0.55 0.62 0.64 0.66 0.70 0.74 0.77 0.81 0.84 0.82 0.88 0.94 0.96 1.01 1.06 1.07 1.09 1.09 1.11 1.09 1.11 1.09 1.07
0.33 0.40 0.43 0.44 0.46 0.46 0.41 0.38 0.37 0.36 0.33 0.41 0.43 0.48 0.48 0.47 0.45 0.44 0.45 0.50 0.49 0.51 0.59 0.64 0.67 0.69 0.75 0.78 0.80 0.86 0.88 0.88 0.91 0.90 0.93 0.94 0.97 0.99 1.00 1.00 0.99 0.99 0.98 0.96
0.26 0.39 0.44 0.40 0.42 0.46 0.45 0.44 0.40 0.32 0.35 0.42 0.45 0.46 0.46 0.44 0.43 0.42 0.45 0.49 0.50 0.51 0.56 0.63 0.68 0.71 0.71 0.78 0.86 0.89 0.87 0.89 0.89 0.89 0.86 0.88 0.93 0.95 0.93 0.93 0.95 0.93 0.94 0.95
0.30 0.37 0.30 0.41 0.50 0.49 0.46 0.46 0.43 0.41 0.41 0.41 0.41 0.45 0.44 0.43 0.42 0.44 0.48 0.51 0.57 0.61 0.65 0.69 0.73 0.72 0.76 0.81 0.83 0.85 0.84 0.84 0.85 0.86 0.85 0.88 0.92 0.91 0.91 0.92 0.92 0.91 0.83 0.78
0.32 0.30 0.38 0.44 0.46 0.44 0.43 0.43 0.44 0.43 0.42 0.42 0.42 0.41 0.40 0.44 0.44 0.46 0.52 0.60 0.64 0.66 0.69 0.72 0.75 0.79 0.79 0.80 0.84 0.88 0.87 0.85 0.85 0.82 0.81 0.85 0.85 0.87 0.89 0.81 0.74 0.72 0.71 0.68
0.38 0.28 0.24 0.36 0.49 0.53 0.52 0.38 0.47 0.44 0.44 0.42 0.43 0.35 0.38 0.47 0.51 0.54 0.59 0.63 0.64 0.68 0.72 0.73 0.74 0.81 0.80 0.79 0.81 0.80 0.82 0.75 0.79 0.85 0.87 0.84 0.80 0.74 0.73 0.71 0.67 0.65 0.62 0.60
0.36 0.32 0.38 0.51 0.54 0.52 0.36 0.37 0.48 0.48 0.47 0.48 0.43 0.45 0.48 0.54 0.56 0.60 0.61 0.65 0.70 0.73 0.70 0.72 0.78 0.80 0.77 0.77 0.74 0.75 0.77 0.79 0.77 0.75 0.74 0.74 0.73 0.71 0.68 0.65 0.62 0.59 0.59 0.58
0.41 0.34 0.28 0.55 0.56 0.42 0.47 0.52 0.52 0.51 0.51 0.51 0.52 0.51 0.50 0.53 0.55 0.60 0.62 0.68 0.72 0.72 0.72 0.77 0.79 0.77 0.72 0.71 0.74 0.78 0.75 0.72 0.71 0.73 0.73 0.73 0.69 0.67 0.65 0.63 0.58 0.57 0.56 0.55
0.41 0.37 0.56 0.60 0.61 0.67 0.64 0.59 0.57 0.53 0.57 0.56 0.52 0.52 0.55 0.55 0.59 0.64 0.68 0.70 0.75 0.73 0.74 0.77 0.78 0.78 0.72 0.73 0.75 0.73 0.70 0.69 0.70 0.70 0.69 0.70 0.67 0.66 0.64 0.62 0.57 0.55 0.55 0.55
0.39 0.44 0.46 0.53 0.61 0.67 0.67 0.66 0.67 0.62 0.61 0.60 0.59 0.61 0.64 0.65 0.67 0.69 0.72 0.72 0.75 0.76 0.75 0.74 0.78 0.78 0.78 0.78 0.77 0.73 0.68 0.65 0.65 0.65 0.65 0.64 0.63 0.61 0.59 0.57 0.56 0.55 0.54 0.50
0.36 0.39 0.41 0.41 0.50 0.57 0.66 0.71 0.72 0.70 0.65 0.63 0.64 0.65 0.68 0.70 0.71 0.73 0.74 0.76 0.77 0.74 0.73 0.73 0.76 0.77 0.78 0.79 0.77 0.70 0.65 0.62 0.61 0.62 0.59 0.57 0.57 0.56 0.55 0.57 0.54 0.48 0.46 0.47
0.32 0.40 0.43 0.43 0.50 0.57 0.62 0.63 0.69 0.67 0.66 0.70 0.72 0.69 0.69 0.70 0.73 0.74 0.74 0.75 0.73 0.73 0.72 0.71 0.72 0.73 0.73 0.73 0.73 0.68 0.63 0.61 0.59 0.57 0.56 0.55 0.54 0.52 0.52 0.49 0.47 0.47 0.46 0.41
0.41 0.47 0.49 0.51 0.61 0.63 0.60 0.63 0.62 0.69 0.75 0.74 0.75 0.76 0.76 0.74 0.75 0.75 0.74 0.73 0.70 0.69 0.71 0.70 0.69 0.69 0.68 0.68 0.68 0.66 0.63 0.61 0.60 0.58 0.56 0.54 0.53 0.51 0.50 0.53 0.51 0.49 0.47 0.46
0.45 0.51 0.48 0.51 0.61 0.70 0.68 0.70 0.70 0.70 0.70 0.72 0.73 0.74 0.72 0.72 0.69 0.67 0.67 0.67 0.67 0.66 0.64 0.65 0.64 0.64 0.65 0.65 0.65 0.64 0.62 0.59 0.59 0.57 0.55 0.55 0.52 0.50 0.49 0.46 0.44 0.44 0.46 0.44
0.56 0.55 0.52 0.54 0.58 0.62 0.64 0.61 0.57 0.60 0.65 0.66 0.66 0.64 0.64 0.63 0.61 0.60 0.60 0.62 0.62 0.62 0.62 0.63 0.63 0.62 0.64 0.63 0.61 0.59 0.57 0.55 0.55 0.53 0.52 0.50 0.48 0.46 0.45 0.43 0.41 0.39 0.39 0.38
0.55 0.54 0.54 0.56 0.56 0.56 0.54 0.55 0.56 0.56 0.58 0.57 0.58 0.58 0.58 0.58 0.57 0.58 0.60 0.60 0.60 0.58 0.60 0.59 0.58 0.59 0.60 0.59 0.56 0.54 0.53 0.51 0.50 0.48 0.47 0.45 0.44 0.42 0.40 0.38 0.36 0.34 0.33 0.32
0.46 0.42 0.44 0.51 0.50 0.47 0.48 0.53 0.52 0.54 0.58 0.58 0.58 0.58 0.58 0.57 0.57 0.57 0.56 0.57 0.60 0.59 0.58 0.56 0.54 0.55 0.55 0.54 0.52 0.50 0.48 0.47 0.45 0.43 0.41 0.40 0.37 0.35 0.33 0.30 0.29 0.27 0.26 0.25
0.51 0.50 0.48 0.49 0.51 0.51 0.51 0.49 0.50 0.54 0.56 0.55 0.53 0.52 0.51 0.51 0.51 0.53 0.55 0.55 0.56 0.55 0.54 0.53 0.52 0.51 0.50 0.48 0.46 0.44 0.42 0.40 0.38 0.35 0.33 0.31 0.29 0.28 0.26 0.25 0.24 0.24 0.23 0.23
0.59 0.56 0.59 0.58 0.58 0.54 0.53 0.52 0.52 0.53 0.53 0.52 0.50 0.48 0.51 0.53 0.53 0.52 0.51 0.51 0.49 0.48 0.48 0.47 0.45 0.44 0.42 0.41 0.39 0.37 0.34 0.33 0.32 0.31 0.30 0.28 0.26 0.24 0.23 0.21 0.20 0.18 0.17 0.16
0.66 0.65 0.62 0.58 0.57 0.55 0.51 0.50 0.52 0.52 0.52 0.51 0.51 0.50 0.49 0.49 0.49 0.49 0.49 0.47 0.47 0.46 0.45 0.42 0.39 0.38 0.37 0.35 0.34 0.32 0.31 0.29 0.26 0.24 0.22 0.19 0.17 0.16 0.15 0.14 0.13 0.12 0.12 0.11
0.62 0.61 0.58 0.56 0.55 0.53 0.53 0.53 0.54 0.53 0.53 0.54 0.51 0.48 0.47 0.47 0.47 0.46 0.44 0.42 0.42 0.41 0.38 0.35 0.34 0.33 0.33 0.31 0.29 0.25 0.22 0.18 0.15 0.14 0.13 0.12 0.11 0.11 0.10 0.10 0.10 0.10 0.10 0.10
0.53 0.53 0.52 0.51 0.49 0.51 0.54 0.54 0.53 0.52 0.51 0.50 0.49 0.48 0.46 0.44 0.44 0.43 0.42 0.38 0.37 0.35 0.33 0.32 0.30 0.28 0.25 0.21 0.17 0.15 0.14 0.13 0.11 0.11 0.10 0.10 0.09 0.09 0.08 0.08 0.08 0.08 0.08 0.08
0.48 0.47 0.47 0.46 0.48 0.49 0.51 0.50 0.50 0.49 0.47 0.46 0.45 0.44 0.43 0.41 0.39 0.36 0.33 0.34 0.32 0.29 0.26 0.22 0.19 0.16 0.14 0.13 0.12 0.11 0.10 0.10 0.09 0.09 0.08 0.08 0.08 0.07 0.07 0.07 0.07 0.07 0.08 0.08
0.45 0.45 0.45 0.46 0.47 0.46 0.44 0.45 0.45 0.45 0.44 0.44 0.43 0.41 0.38 0.35 0.34 0.32 0.30 0.26 0.23 0.20 0.18 0.16 0.14 0.12 0.11 0.10 0.09 0.09 0.08 0.08 0.08 0.07 0.07 0.07 0.07 0.07 0.07 0.07 0.07 0.07 0.07 0.07
0.43 0.44 0.44 0.43 0.42 0.42 0.42 0.42 0.42 0.41 0.40 0.39 0.37 0.35 0.33 0.30 0.25 0.23 0.21 0.19 0.17 0.15 0.14 0.12 0.11 0.10 0.09 0.09 0.08 0.08 0.07 0.07 0.07 0.07 0.07 0.06 0.06 0.07 0.07 0.07 0.07 0.07 0.07 0.07
0.41 0.40 0.41 0.41 0.41 0.41 0.40 0.39 0.37 0.36 0.34 0.31 0.29 0.26 0.23 0.21 0.19 0.17 0.16 0.15 0.13 0.12 0.11 0.10 0.09 0.08 0.08 0.07 0.07 0.07 0.07 0.07 0.07 0.06 0.06 0.06 0.07 0.06 0.06 0.06 0.06 0.07 0.07 0.07
0.40 0.40 0.39 0.38 0.38 0.38 0.37 0.35 0.32 0.28 0.24 0.21 0.19 0.19 0.18 0.16 0.15 0.14 0.13 0.12 0.11 0.10 0.09 0.08 0.08 0.07 0.07 0.06 0.07 0.07 0.07 0.07 0.07 0.07 0.07 0.07 0.07 0.07 0.07 0.07 0.07 0.07 0.07 0.07